{"data":{"norad_id":61203,"epoch":"2026-09-19T14:17:57.981408Z","epoch_age_seconds":270202,"freshness":"STALE","line1":"1 61203U 24171D   26262.59580997  .00000417  00000+0  83001-5 0  9995","line2":"2 61203  53.1598 300.3941 0001155  79.4715 280.6433 15.69710935114851","mean_motion":15.69710935,"eccentricity":0.0001155,"inclination_deg":53.1598,"raan_deg":300.3941,"arg_perigee_deg":79.4715,"mean_anomaly_deg":280.6433,"bstar":8.3001e-6,"rev_number":11485,"period_min":91.736635573606,"perigee_km":358.94585185487,"apogee_km":360.50229776315,"semimajor_km":6737.861074809,"source":"CELESTRAK","updated_at":"2026-09-22T09:00:49.338898Z"}}